| time (UTC) | temp C | wind direction | speed KPH | gust KPH | rain 1hr cm | rain 24hr cm | rain mn cm | humidity % | barometer mb |
| 20260507011606 | 13 | 164 | 0.0 | 4.8 | 0.00 | 0.00 | 0.00 | 50 | 1008.6 |
| 20260507011106 | 13 | 195 | 3.2 | 4.8 | 0.00 | 0.00 | 0.00 | 49 | 1008.4 |
| 20260507010106 | 13 | 133 | 3.2 | 4.8 | 0.00 | 0.00 | 0.00 | 48 | 1008.2 |
| 20260507005605 | 13 | 134 | 3.2 | 4.8 | 0.00 | 0.00 | 0.00 | 50 | 1008.6 |
| 20260507005106 | 13 | 190 | 3.2 | 8.0 | 0.00 | 0.00 | 0.00 | 50 | 1008.6 |
| 20260507004606 | 13 | 144 | 3.2 | 4.8 | 0.00 | 0.00 | 0.00 | 49 | 1008.5 |
| 20260507004106 | 13 | 158 | 3.2 | 4.8 | 0.00 | 0.00 | 0.00 | 49 | 1008.5 |
| 20260507003106 | 13 | 117 | 3.2 | 4.8 | 0.00 | 0.00 | 0.00 | 48 | 1008.7 |
| 20260507002606 | 13 | 134 | 3.2 | 4.8 | 0.00 | 0.00 | 0.00 | 49 | 1008.7 |
| 20260507002106 | 13 | 193 | 4.8 | 8.0 | 0.00 | 0.00 | 0.00 | 49 | 1008.9 |
| 20260507001609 | 13 | 190 | 4.8 | 8.0 | 0.00 | 0.00 | 0.00 | 48 | 1008.9 |
| 20260507001106 | 13 | 83 | 4.8 | 8.0 | 0.00 | 0.00 | 0.00 | 48 | 1009.0 |
| 20260507000608 | 13 | 100 | 4.8 | 8.0 | 0.00 | 0.00 | 0.00 | 48 | 1008.8 |
| 20260507000106 | 13 | 115 | 3.2 | 8.0 | 0.00 | 0.00 | 0.00 | 49 | 1009.0 |
| 20260506235606 | 13 | 177 | 6.4 | 9.7 | 0.00 | 0.00 | 0.00 | 49 | 1008.7 |
| 20260506235107 | 13 | 169 | 4.8 | 8.0 | 0.00 | 0.00 | 0.00 | 49 | 1009.0 |
| 20260506234606 | 13 | 194 | 4.8 | 8.0 | 0.00 | 0.00 | 0.00 | 49 | 1008.8 |
| 20260506234106 | 13 | 154 | 4.8 | 8.0 | 0.00 | 0.00 | 0.00 | 48 | 1009.0 |
| 20260506233606 | 13 | 195 | 3.2 | 9.7 | 0.00 | 0.00 | 0.00 | 48 | 1008.8 |
| 20260506232106 | 13 | 115 | 9.7 | 12.9 | 0.00 | 0.00 | 0.00 | 46 | 1008.7 |
| 20260506231606 | 14 | 116 | 8.0 | 14.5 | 0.00 | 0.00 | 0.00 | 46 | 1008.7 |
| 20260506231106 | 14 | 145 | 9.7 | 16.1 | 0.00 | 0.00 | 0.00 | 47 | 1009.1 |
| 20260506230605 | 14 | 134 | 8.0 | 14.5 | 0.00 | 0.00 | 0.00 | 47 | 1008.7 |
| 20260506225107 | 14 | 121 | 6.4 | 14.5 | 0.00 | 0.00 | 0.00 | 48 | 1008.8 |
| 20260506224605 | 14 | 135 | 9.7 | 20.9 | 0.00 | 0.00 | 0.00 | 48 | 1008.8 |
| 20260506224106 | 14 | 97 | 9.7 | 19.3 | 0.00 | 0.00 | 0.00 | 49 | 1008.5 |
| 20260506223607 | 14 | 120 | 9.7 | 24.1 | 0.00 | 0.00 | 0.00 | 50 | 1008.6 |
| 20260506222105 | 14 | 116 | 9.7 | 24.1 | 0.00 | 0.00 | 0.00 | 50 | 1008.6 |
| 20260506221605 | 14 | 117 | 11.3 | 27.4 | 0.00 | 0.00 | 0.00 | 51 | 1008.5 |
| 20260506221107 | 14 | 133 | 8.0 | 16.1 | 0.00 | 0.00 | 0.00 | 52 | 1008.5 |
| 20260506220606 | 14 | 121 | 11.3 | 22.5 | 0.00 | 0.00 | 0.00 | 52 | 1008.6 |
| 20260506215607 | 14 | 93 | 11.3 | 19.3 | 0.00 | 0.00 | 0.00 | 53 | 1008.7 |
| 20260506215106 | 14 | 103 | 9.7 | 19.3 | 0.00 | 0.00 | 0.00 | 54 | 1008.7 |
| 20260506214606 | 14 | 101 | 16.1 | 25.7 | 0.00 | 0.00 | 0.00 | 54 | 1008.6 |
| 20260506214106 | 14 | 104 | 12.9 | 24.1 | 0.00 | 0.00 | 0.00 | 53 | 1008.8 |
| 20260506212607 | 14 | 113 | 9.7 | 19.3 | 0.00 | 0.00 | 0.00 | 53 | 1008.8 |
| 20260506212106 | 14 | 109 | 9.7 | 24.1 | 0.00 | 0.00 | 0.00 | 52 | 1008.6 |
| 20260506211607 | 15 | 110 | 11.3 | 16.1 | 0.00 | 0.00 | 0.00 | 51 | 1008.6 |
| 20260506211106 | 15 | 123 | 9.7 | 19.3 | 0.00 | 0.00 | 0.00 | 50 | 1008.5 |
| 20260506205606 | 15 | 131 | 6.4 | 14.5 | 0.00 | 0.00 | 0.00 | 50 | 1008.4 |
| 20260506205106 | 15 | 121 | 9.7 | 14.5 | 0.00 | 0.00 | 0.00 | 49 | 1008.2 |
| 20260506204606 | 15 | 128 | 11.3 | 20.9 | 0.00 | 0.00 | 0.00 | 48 | 1008.3 |
| 20260506204106 | 15 | 144 | 9.7 | 14.5 | 0.00 | 0.00 | 0.00 | 49 | 1008.0 |
| 20260506203106 | 15 | 119 | 8.0 | 12.9 | 0.00 | 0.00 | 0.00 | 49 | 1008.0 |
| 20260506202606 | 15 | 136 | 8.0 | 11.3 | 0.00 | 0.00 | 0.00 | 48 | 1007.9 |
| 20260506202106 | 16 | 165 | 9.7 | 14.5 | 0.00 | 0.00 | 0.00 | 47 | 1007.7 |
| 20260506201106 | 15 | 132 | 8.0 | 12.9 | 0.00 | 0.00 | 0.00 | 47 | 1007.5 |
| 20260506200606 | 16 | 107 | 8.0 | 12.9 | 0.00 | 0.00 | 0.00 | 46 | 1007.4 |
| 20260506200106 | 16 | 149 | 8.0 | 11.3 | 0.00 | 0.00 | 0.00 | 46 | 1007.3 |
| 20260506195605 | 16 | 136 | 6.4 | 11.3 | 0.00 | 0.00 | 0.00 | 46 | 1007.3 |
| 20260506194606 | 16 | 157 | 3.2 | 9.7 | 0.00 | 0.00 | 0.00 | 47 | 1007.3 |
| 20260506194106 | 16 | 158 | 4.8 | 9.7 | 0.00 | 0.00 | 0.00 | 47 | 1007.3 |
| 20260506193106 | 16 | 149 | 3.2 | 11.3 | 0.00 | 0.00 | 0.00 | 46 | 1007.1 |
| 20260506192605 | 16 | 156 | 4.8 | 9.7 | 0.00 | 0.00 | 0.00 | 46 | 1007.0 |
| 20260506192107 | 16 | 168 | 3.2 | 8.0 | 0.00 | 0.00 | 0.00 | 46 | 1006.9 |
| 20260506191607 | 16 | 144 | 3.2 | 8.0 | 0.00 | 0.00 | 0.00 | 46 | 1006.7 |
| 20260506191107 | 16 | 173 | 3.2 | 4.8 | 0.00 | 0.00 | 0.00 | 46 | 1006.6 |
| 20260506190606 | 17 | 182 | 3.2 | 4.8 | 0.00 | 0.00 | 0.00 | 45 | 1006.5 |
| 20260506185605 | 17 | 189 | 6.4 | 9.7 | 0.00 | 0.00 | 0.00 | 44 | 1006.3 |
| 20260506185105 | 17 | 215 | 3.2 | 11.3 | 0.00 | 0.00 | 0.00 | 44 | 1006.2 |
| 20260506184605 | 18 | 188 | 6.4 | 11.3 | 0.00 | 0.00 | 0.00 | 43 | 1006.0 |
| 20260506184106 | 18 | 200 | 8.0 | 12.9 | 0.00 | 0.00 | 0.00 | 42 | 1005.7 |
| 20260506183106 | 18 | 200 | 8.0 | 16.1 | 0.00 | 0.00 | 0.00 | 41 | 1005.8 |
| 20260506182606 | 18 | 201 | 11.3 | 19.3 | 0.00 | 0.00 | 0.00 | 40 | 1005.8 |
| 20260506182105 | 19 | 210 | 11.3 | 19.3 | 0.00 | 0.00 | 0.00 | 40 | 1005.5 |
| 20260506181605 | 19 | 214 | 9.7 | 19.3 | 0.00 | 0.00 | 0.00 | 41 | 1005.6 |
| 20260506181105 | 19 | 226 | 8.0 | 16.1 | 0.00 | 0.00 | 0.00 | 41 | 1005.4 |
| 20260506180606 | 18 | 258 | 9.7 | 14.5 | 0.00 | 0.00 | 0.00 | 41 | 1005.8 |
| 20260506180106 | 18 | 267 | 6.4 | 11.3 | 0.00 | 0.00 | 0.00 | 39 | 1006.0 |
| 20260506175606 | 18 | 300 | 3.2 | 8.0 | 0.00 | 0.00 | 0.00 | 40 | 1006.0 |
| 20260506175105 | 18 | 317 | 4.8 | 9.7 | 0.00 | 0.00 | 0.00 | 40 | 1006.1 |
| 20260506174605 | 18 | 274 | 4.8 | 9.7 | 0.00 | 0.00 | 0.00 | 40 | 1006.0 |
| 20260506173607 | 18 | 268 | 4.8 | 9.7 | 0.00 | 0.00 | 0.00 | 39 | 1006.1 |
| 20260506173106 | 18 | 293 | 4.8 | 11.3 | 0.00 | 0.00 | 0.00 | 39 | 1006.0 |
| 20260506172607 | 18 | 303 | 8.0 | 11.3 | 0.00 | 0.00 | 0.00 | 38 | 1006.0 |
| 20260506172105 | 18 | 347 | 4.8 | 9.7 | 0.00 | 0.00 | 0.00 | 38 | 1005.9 |
| 20260506171606 | 18 | 23 | 8.0 | 16.1 | 0.00 | 0.00 | 0.00 | 39 | 1005.9 |
| 20260506171106 | 18 | 2 | 9.7 | 12.9 | 0.00 | 0.00 | 0.00 | 40 | 1006.1 |
| 20260506170604 | 18 | 9 | 4.8 | 12.9 | 0.00 | 0.00 | 0.00 | 39 | 1005.9 |
| 20260506170106 | 18 | 314 | 6.4 | 12.9 | 0.00 | 0.00 | 0.00 | 39 | 1006.0 |
| 20260506165606 | 18 | 287 | 6.4 | 11.3 | 0.00 | 0.00 | 0.00 | 37 | 1006.2 |
| 20260506165106 | 18 | 331 | 9.7 | 19.3 | 0.00 | 0.00 | 0.00 | 38 | 1006.1 |
| 20260506164606 | 18 | 251 | 9.7 | 14.5 | 0.00 | 0.00 | 0.00 | 37 | 1006.1 |
| 20260506164105 | 18 | 296 | 8.0 | 22.5 | 0.00 | 0.00 | 0.00 | 38 | 1006.0 |
| 20260506163605 | 18 | 243 | 12.9 | 20.9 | 0.00 | 0.00 | 0.00 | 38 | 1006.1 |
| 20260506163107 | 18 | 295 | 9.7 | 19.3 | 0.00 | 0.00 | 0.00 | 38 | 1006.0 |
| 20260506162605 | 19 | 352 | 8.0 | 14.5 | 0.00 | 0.00 | 0.00 | 38 | 1006.0 |
| 20260506162104 | 19 | 307 | 6.4 | 9.7 | 0.00 | 0.00 | 0.00 | 38 | 1005.9 |
| 20260506161606 | 19 | 306 | 6.4 | 14.5 | 0.00 | 0.00 | 0.00 | 37 | 1005.9 |
| 20260506161107 | 20 | 291 | 3.2 | 9.7 | 0.00 | 0.00 | 0.00 | 38 | 1005.5 |
| 20260506160606 | 20 | 264 | 9.7 | 20.9 | 0.00 | 0.00 | 0.00 | 37 | 1005.8 |
| 20260506160106 | 20 | 329 | 6.4 | 11.3 | 0.00 | 0.00 | 0.00 | 37 | 1005.6 |
| 20260506155605 | 19 | 284 | 8.0 | 14.5 | 0.00 | 0.00 | 0.00 | 39 | 1005.8 |
| 20260506155105 | 19 | 288 | 8.0 | 14.5 | 0.00 | 0.00 | 0.00 | 38 | 1005.8 |
| 20260506154606 | 19 | 306 | 9.7 | 19.3 | 0.00 | 0.00 | 0.00 | 38 | 1006.0 |
| 20260506153606 | 20 | 345 | 9.7 | 20.9 | 0.00 | 0.00 | 0.00 | 37 | 1005.8 |
| 20260506152606 | 18 | 289 | 8.0 | 20.9 | 0.00 | 0.00 | 0.00 | 38 | 1006.4 |
| 20260506152105 | 18 | 286 | 8.0 | 20.9 | 0.00 | 0.00 | 0.00 | 40 | 1006.3 |
| 20260506151606 | 18 | 306 | 11.3 | 20.9 | 0.00 | 0.00 | 0.00 | 38 | 1006.2 |
| 20260506151105 | 18 | 338 | 9.7 | 20.9 | 0.00 | 0.00 | 0.00 | 38 | 1006.4 |
| 20260506150605 | 19 | 331 | 8.0 | 19.3 | 0.00 | 0.00 | 0.00 | 38 | 1006.4 |
| 20260506150105 | 20 | 310 | 9.7 | 19.3 | 0.00 | 0.00 | 0.00 | 38 | 1006.0 |
| 20260506145605 | 20 | 295 | 6.4 | 24.1 | 0.00 | 0.00 | 0.00 | 38 | 1006.3 |
| 20260506145106 | 19 | 267 | 16.1 | 24.1 | 0.00 | 0.00 | 0.00 | 38 | 1006.4 |
| 20260506144106 | 19 | 245 | 14.5 | 20.9 | 0.00 | 0.00 | 0.00 | 38 | 1006.6 |
| 20260506143105 | 19 | 243 | 9.7 | 14.5 | 0.00 | 0.00 | 0.00 | 38 | 1006.6 |
| 20260506142607 | 20 | 298 | 9.7 | 20.9 | 0.00 | 0.00 | 0.00 | 37 | 1006.6 |
| 20260506142105 | 20 | 274 | 11.3 | 20.9 | 0.00 | 0.00 | 0.00 | 36 | 1006.3 |
| 20260506141605 | 19 | 265 | 9.7 | 20.9 | 0.00 | 0.00 | 0.00 | 37 | 1006.7 |
| 20260506141106 | 20 | 286 | 11.3 | 22.5 | 0.00 | 0.00 | 0.00 | 37 | 1006.7 |
| 20260506140605 | 20 | 325 | 9.7 | 20.9 | 0.00 | 0.00 | 0.00 | 38 | 1006.6 |
| 20260506140105 | 19 | 263 | 12.9 | 22.5 | 0.00 | 0.00 | 0.00 | 38 | 1006.8 |
| 20260506135105 | 20 | 245 | 9.7 | 20.9 | 0.00 | 0.00 | 0.00 | 38 | 1006.7 |
| 20260506134105 | 20 | 252 | 16.1 | 20.9 | 0.00 | 0.00 | 0.00 | 37 | 1006.7 |
| 20260506133605 | 19 | 11 | 9.7 | 19.3 | 0.00 | 0.00 | 0.00 | 37 | 1006.9 |
| 20260506132605 | 20 | 304 | 8.0 | 14.5 | 0.00 | 0.00 | 0.00 | 37 | 1006.7 |
| 20260506132105 | 20 | 282 | 6.4 | 9.7 | 0.00 | 0.00 | 0.00 | 37 | 1006.9 |
| 20260506131604 | 19 | 338 | 8.0 | 14.5 | 0.00 | 0.00 | 0.00 | 37 | 1007.1 |
| 20260506131105 | 20 | 299 | 11.3 | 20.9 | 0.00 | 0.00 | 0.00 | 37 | 1007.1 |
| 20260506130605 | 19 | 282 | 11.3 | 19.3 | 0.00 | 0.00 | 0.00 | 37 | 1007.3 |
| 20260506130106 | 19 | 334 | 9.7 | 19.3 | 0.00 | 0.00 | 0.00 | 37 | 1007.1 |
| 20260506125606 | 19 | 300 | 4.8 | 22.5 | 0.00 | 0.00 | 0.00 | 39 | 1007.1 |
| 20260506125105 | 18 | 302 | 8.0 | 19.3 | 0.00 | 0.00 | 0.00 | 38 | 1007.3 |
| 20260506124605 | 18 | 304 | 11.3 | 19.3 | 0.00 | 0.00 | 0.00 | 39 | 1007.4 |
| 20260506124105 | 18 | 280 | 11.3 | 20.9 | 0.00 | 0.00 | 0.00 | 39 | 1007.5 |
| 20260506123605 | 18 | 265 | 9.7 | 20.9 | 0.00 | 0.00 | 0.00 | 39 | 1007.4 |
| 20260506123105 | 18 | 291 | 8.0 | 20.9 | 0.00 | 0.00 | 0.00 | 38 | 1007.6 |
| 20260506122606 | 18 | 252 | 19.3 | 24.1 | 0.00 | 0.00 | 0.00 | 38 | 1007.8 |
| 20260506122105 | 18 | 268 | 9.7 | 14.5 | 0.00 | 0.00 | 0.00 | 38 | 1007.5 |
| 20260506121606 | 19 | 320 | 4.8 | 11.3 | 0.00 | 0.00 | 0.00 | 38 | 1007.4 |
| 20260506121105 | 19 | 190 | 4.8 | 11.3 | 0.00 | 0.00 | 0.00 | 36 | 1007.4 |
| 20260506120605 | 18 | 287 | 1.6 | 9.7 | 0.00 | 0.00 | 0.00 | 39 | 1007.5 |
| 20260506120106 | 18 | 50 | 6.4 | 12.9 | 0.00 | 0.00 | 0.00 | 37 | 1007.5 |
| 20260506115606 | 18 | 295 | 4.8 | 11.3 | 0.00 | 0.00 | 0.00 | 37 | 1007.6 |
| 20260506115105 | 18 | 267 | 4.8 | 14.5 | 0.00 | 0.00 | 0.00 | 38 | 1007.5 |
| 20260506113605 | 18 | 290 | 12.9 | 20.9 | 0.00 | 0.00 | 0.00 | 38 | 1008.3 |
| 20260506113105 | 18 | 294 | 11.3 | 20.9 | 0.00 | 0.00 | 0.00 | 38 | 1008.1 |
| 20260506112605 | 17 | 293 | 16.1 | 29.0 | 0.00 | 0.00 | 0.00 | 39 | 1008.1 |
| 20260506112105 | 17 | 350 | 9.7 | 16.1 | 0.00 | 0.00 | 0.00 | 39 | 1008.1 |
| 20260506110604 | 17 | 212 | 3.2 | 14.5 | 0.00 | 0.00 | 0.00 | 36 | 1008.3 |
| 20260506110106 | 17 | 7 | 9.7 | 16.1 | 0.00 | 0.00 | 0.00 | 37 | 1008.4 |
| 20260506105605 | 18 | 348 | 11.3 | 14.5 | 0.00 | 0.00 | 0.00 | 36 | 1008.3 |
| 20260506105106 | 17 | 18 | 6.4 | 14.5 | 0.00 | 0.00 | 0.00 | 37 | 1008.6 |
| 20260506104605 | 17 | 339 | 4.8 | 14.5 | 0.00 | 0.00 | 0.00 | 37 | 1008.3 |
| 20260506104105 | 17 | 350 | 4.8 | 16.1 | 0.00 | 0.00 | 0.00 | 37 | 1008.5 |
| 20260506103605 | 17 | 351 | 4.8 | 11.3 | 0.00 | 0.00 | 0.00 | 37 | 1008.6 |
| 20260506103105 | 17 | 330 | 9.7 | 16.1 | 0.00 | 0.00 | 0.00 | 37 | 1008.4 |
| 20260506102105 | 17 | 315 | 9.7 | 19.3 | 0.00 | 0.00 | 0.00 | 39 | 1009.0 |
| 20260506101605 | 16 | 284 | 4.8 | 16.1 | 0.00 | 0.00 | 0.00 | 38 | 1008.8 |
| 20260506101105 | 16 | 343 | 11.3 | 22.5 | 0.00 | 0.00 | 0.00 | 38 | 1008.8 |
| 20260506100605 | 17 | 2 | 11.3 | 19.3 | 0.00 | 0.00 | 0.00 | 37 | 1008.9 |
| 20260506100106 | 16 | 36 | 8.0 | 19.3 | 0.00 | 0.00 | 0.00 | 39 | 1009.2 |
| 20260506095604 | 16 | 19 | 11.3 | 19.3 | 0.00 | 0.00 | 0.00 | 38 | 1009.1 |
| 20260506095105 | 16 | 0 | 4.8 | 14.5 | 0.00 | 0.00 | 0.00 | 35 | 1009.4 |
| 20260506094606 | 16 | 30 | 11.3 | 20.9 | 0.00 | 0.00 | 0.00 | 39 | 1009.2 |
| 20260506094105 | 16 | 8 | 14.5 | 22.5 | 0.00 | 0.00 | 0.00 | 37 | 1009.2 |
| 20260506093604 | 16 | 5 | 12.9 | 20.9 | 0.00 | 0.00 | 0.00 | 38 | 1008.9 |
| 20260506093104 | 16 | 19 | 9.7 | 16.1 | 0.00 | 0.00 | 0.00 | 40 | 1009.3 |
| 20260506092604 | 16 | 313 | 9.7 | 19.3 | 0.00 | 0.00 | 0.00 | 37 | 1009.1 |
| 20260506090605 | 16 | 41 | 8.0 | 16.1 | 0.00 | 0.00 | 0.00 | 43 | 1009.2 |
| 20260506085106 | 15 | 287 | 8.0 | 19.3 | 0.00 | 0.00 | 0.00 | 45 | 1009.4 |
| 20260506084105 | 15 | 47 | 9.7 | 14.5 | 0.00 | 0.00 | 0.00 | 47 | 1009.3 |
| 20260506083605 | 15 | 298 | 4.8 | 9.7 | 0.00 | 0.00 | 0.00 | 55 | 1009.4 |
| 20260506083104 | 14 | 281 | 8.0 | 11.3 | 0.00 | 0.00 | 0.00 | 61 | 1009.6 |
| 20260506082604 | 14 | 253 | 6.4 | 11.3 | 0.00 | 0.00 | 0.00 | 60 | 1009.5 |
| 20260506082105 | 14 | 234 | 8.0 | 9.7 | 0.00 | 0.00 | 0.00 | 62 | 1009.8 |
| 20260506081605 | 15 | 222 | 4.8 | 8.0 | 0.00 | 0.00 | 0.00 | 60 | 1009.4 |
| 20260506081105 | 13 | 214 | 3.2 | 9.7 | 0.00 | 0.00 | 0.00 | 63 | 1009.7 |
| 20260506080106 | 13 | 242 | 6.4 | 8.0 | 0.00 | 0.00 | 0.00 | 66 | 1009.9 |
| 20260506072605 | 11 | 218 | 3.2 | 4.8 | 0.00 | 0.00 | 0.00 | 71 | 1010.8 |
| 20260506072105 | 11 | 208 | 1.6 | 4.8 | 0.00 | 0.00 | 0.00 | 72 | 1010.8 |
| 20260506071604 | 11 | 234 | 4.8 | 8.0 | 0.00 | 0.00 | 0.00 | 72 | 1010.8 |
| 20260506071105 | 10 | 240 | 1.6 | 4.8 | 0.00 | 0.00 | 0.00 | 72 | 1010.8 |
| 20260506070605 | 10 | 96 | 1.6 | 3.2 | 0.00 | 0.00 | 0.00 | 72 | 1010.9 |
| 20260506070104 | 10 | 306 | 0.0 | 4.8 | 0.00 | 0.00 | 0.00 | 73 | 1010.8 |
| 20260506062105 | 10 | 79 | 4.8 | 9.7 | 0.00 | 0.00 | 0.00 | 72 | 1011.1 |
| 20260506061605 | 9 | 27 | 3.2 | 4.8 | 0.00 | 0.00 | 0.00 | 72 | 1011.1 |
| 20260506061106 | 10 | 188 | 3.2 | 11.3 | 0.00 | 0.00 | 0.00 | 73 | 1010.9 |
| 20260506060606 | 10 | 191 | 1.6 | 8.0 | 0.00 | 0.00 | 0.00 | 72 | 1010.9 |
| 20260506060106 | 10 | 219 | 4.8 | 8.0 | 0.00 | 0.00 | 0.00 | 73 | 1010.8 |
| 20260506051106 | 10 | 353 | 3.2 | 4.8 | 0.00 | 0.00 | 0.00 | 73 | 1010.8 |
| 20260506050607 | 10 | 34 | 3.2 | 8.0 | 0.00 | 0.00 | 0.00 | 72 | 1010.6 |
| 20260506050107 | 10 | 10 | 4.8 | 8.0 | 0.00 | 0.00 | 0.00 | 72 | 1010.5 |
| 20260506045106 | 10 | 36 | 4.8 | 8.0 | 0.00 | 0.00 | 0.00 | 71 | 1010.6 |
| 20260506044607 | 10 | 48 | 6.4 | 9.7 | 0.00 | 0.00 | 0.00 | 71 | 1010.5 |
| 20260506043607 | 10 | 55 | 8.0 | 11.3 | 0.00 | 0.00 | 0.00 | 70 | 1010.7 |